Location: Unspecified
(40.7945°N, 111.1337°W)
Time: 20:50:32
(UTC-06:00)

Vanguard 1 - Pass Details

Date: 28 June 2019
Orbit: 653 x 3830 km, 34.3° (Epoch: 17 July)

Event Time Altitude Azimuth Distance (km) Brightness Sun altitude
Rises 23:10:57 0° 200° (SSW) 7,540 14.2 -18.5°
Reaches altitude 10° 23:17:07 10° 190° (S) 6,766 13.9 -19.1°
Maximum altitude 23:34:53 29° 140° (SE) 5,358 13.2 -20.8°
Drops below altitude 10° 23:50:33 10° 90° (E) 6,052 13.8 -22.1°
Sets 23:55:28 0° 80° (E) 6,675 14.2 -22.5°
